[[{"header":{"parameterUnit":"m.s-1","parameterCategory":1,"la1":30.2991,"la2":30.254,"lo1":-89.0895,"lo2":-89.0444,"dy":0.0017,"dx":0.0017,"nx":28,"ny":28,"refTime":"2024-12-15T09:00:00:Z","depth":0,"parameterNumber":2,"parameterNumberName":"U-component_of_WINDS"},"data":[0,0,0,0,0,0,0,0,0,0,0,0,0,0,0,0,0,0,0,0,0,0,0,0,0,0,0,0,0,0,0,0,0,0,0,0,0,0,0,0,0,0,0,0,0,0,0,0,0,0,0,0,0,0,0,0,0,0,-2.1732,-2.1732,0,-2.1704,-2.1703,-2.1703,-2.1649,-2.1648,-2.1647,-2.1646,-2.1618,-2.1618,-2.1619,0,0,0,0,0,0,0,0,0,0,0,0,0,-2.1741,-2.1741,-2.1732,-2.1732,-2.1731,-2.1704,-2.1703,-2.1703,-2.1649,-2.1648,-2.1646,-2.1645,-2.1618,-2.1618,-2.1619,0,0,0,0,0,0,0,0,0,0,0,0,0,-2.1727,-2.1741,-2.1732,-2.1701,-2.1698,-2.1704,-2.1703,-2.1703,-2.1649,-2.1648,-2.1646,-2.1645,-2.1618,-2.1618,-2.1619,-2.1653,0,0,-2.162,-2.162,0,0,0,0,0,0,0,0,-2.1728,-2.1727,-2.1706,-2.1703,-2.17,-2.1678,-2.1696,-2.1686,-2.165,-2.1668,-2.1646,-2.1644,-2.164,-2.1638,-2.1636,-2.1652,-2.1651,-2.162,-2.162,-2.162,-2.1621,0,0,0,0,0,0,0,-2.1729,-2.1728,-2.1721,-2.1706,-2.1702,-2.1689,-2.1685,-2.1694,-2.1663,-2.1666,-2.1662,-2.1659,-2.1638,-2.1636,-2.1635,-2.165,-2.162,-2.162,-2.1621,-2.1621,-2.1692,-2.1693,0,0,0,0,0,0,-2.1735,-2.1729,-2.1722,-2.172,-2.171,-2.169,-2.1686,-2.1687,-2.1663,-2.1658,-2.1661,-2.1657,-2.1636,-2.1635,-2.1634,-2.1671,-2.162,-2.1621,-2.1621,-2.169,-2.1692,-2.1694,0,0,0,0,0,0,-2.1735,-2.1734,-2.1723,-2.1724,-2.1721,-2.1692,-2.1693,-2.1687,-2.1685,-2.1659,-2.1653,-2.1665,-2.1635,-2.1634,-2.1648,-2.167,-2.1621,-2.1621,-2.1688,-2.1691,-2.1693,-2.1748,0,0,0,0,0,0,-2.1735,-2.1735,-2.1747,-2.1724,-2.1721,-2.1737,-2.1694,-2.1688,-2.1686,-2.1681,-2.1661,-2.1656,-2.1634,-2.1648,-2.1649,-2.167,-2.1622,-2.1686,-2.1689,-2.1692,-2.1744,-2.1752,-2.1758,0,0,0,0,0,-2.1736,-2.1764,-2.1748,-2.1748,-2.1736,-2.1739,-2.1737,-2.171,-2.1688,-2.17,-2.1683,-2.1657,-2.1668,-2.165,-2.165,-2.1672,-2.1685,-2.1688,-2.1692,-2.174,-2.175,-2.1758,0,0,0,0,0,0,-2.1791,-2.1761,-2.1742,-2.1764,-2.1754,-2.173,-2.1744,-2.1721,-2.1718,-2.1713,-2.168,-2.1676,-2.1695,-2.1685,-2.1666,-2.1703,-2.1672,-2.1676,-2.1709,-2.1718,-2.1725,-2.1726,-2.1622,0,0,0,0,0,-2.1806,-2.181,-2.1784,-2.1805,-2.1801,-2.1774,-2.1774,-2.1754,-2.1743,-2.1738,-2.1722,-2.1713,-2.1714,-2.1716,-2.1715,-2.1743,-2.1737,-2.1757,-2.1765,-2.1771,-2.1774,-2.1787,-2.1795,-2.1706,-2.1706,-2.1706,0,0,-2.1836,-2.182,-2.1825,-2.1816,-2.1806,-2.1811,-2.1771,-2.1778,-2.1782,-2.174,-2.1752,-2.1741,-2.1728,-2.1749,-2.1757,-2.1741,-2.1798,-2.1776,-2.1781,-2.1781,-2.1792,-2.18,-2.1808,-2.1709,-2.1708,-2.1708,0,0,-2.1893,-2.1882,-2.1898,-2.1889,-2.1875,-2.1856,-2.186,-2.1839,-2.1829,-2.1841,-2.181,-2.1814,-2.1817,-2.1809,-2.1805,-2.1861,-2.1836,-2.1862,-2.1899,-2.1912,-2.1919,-2.1925,-2.1943,-2.1951,-2.1865,-2.1866,-2.1866,0,-2.1933,-2.1939,-2.191,-2.1919,-2.1916,-2.1878,-2.1894,-2.1887,-2.1873,-2.1872,-2.1854,-2.1857,-2.1846,-2.1864,-2.1877,-2.1876,-2.1879,-2.1863,-2.192,-2.1926,-2.1931,-2.1948,-2.1956,-2.1869,-2.1868,-2.1868,-2.1868,0,-2.1988,-2.1993,-2.2008,-2.1995,-2.1993,-2.2006,-2.1979,-2.1982,-2.1962,-2.1946,-2.1959,-2.1944,-2.194,-2.1943,-2.1924,-2.1958,-2.1949,-2.1926,-2.1894,-2.1943,-2.1959,-2.1965,-2.1873,-2.1872,-2.1871,-2.187,0,0,-2.2078,-2.2048,-2.2054,-2.2048,-2.2029,-2.2032,-2.2044,-2.2039,-2.2041,-2.2034,-2.2042,-2.2046,-2.2025,-2.2021,-2.2001,-2.2012,-2.2055,-2.1988,-2.1987,-2.2,-2.2091,-2.2107,-2.2115,-2.204,-2.2041,-2.2042,-2.2091,0,-2.213,-2.2146,-2.2121,-2.2143,-2.2147,-2.2112,-2.2122,-2.2111,-2.2097,-2.2098,-2.2083,-2.2085,-2.2058,-2.2055,-2.2065,-2.2048,-2.2073,-2.2044,-2.2047,-2.2047,-2.2049,-2.2123,-2.214,-2.2187,-2.2097,-2.2098,-2.2099,0,-2.2193,-2.2187,-2.221,-2.2189,-2.219,-2.2199,-2.2192,-2.2195,-2.2183,-2.2171,-2.2167,-2.2143,-2.2153,-2.2123,-2.2136,-2.2117,-2.2117,-2.2109,-2.2111,-2.2108,-2.2075,-2.2121,-2.2202,-2.2208,-2.2109,-2.2108,-2.2107,0,-2.2254,-2.2253,-2.2266,-2.2262,-2.2238,-2.2246,-2.2236,-2.2223,-2.2221,-2.2216,-2.2215,-2.2211,-2.2209,-2.2207,-2.2183,-2.2164,-2.2199,-2.2167,-2.2189,-2.2189,-2.2196,-2.2196,-2.2276,-2.2199,-2.2199,-2.2199,-2.2199,0,-2.2314,-2.2329,-2.2293,-2.2301,-2.2317,-2.2288,-2.2304,-2.2292,-2.228,-2.2285,-2.2255,-2.2261,-2.2229,-2.2232,-2.2214,-2.2226,-2.2226,-2.2217,-2.2211,-2.2218,-2.2219,-2.2217,-2.2212,-2.2201,-2.22,-2.22,-2.22,0,-2.2385,-2.2361,-2.2373,-2.235,-2.2345,-2.2357,-2.2338,-2.2345,-2.2328,-2.2335,-2.2335,-2.231,-2.2311,-2.2287,-2.2284,-2.2272,-2.2292,-2.2282,-2.2296,-2.2292,-2.2315,-2.2312,-2.2395,-2.2403,-2.2322,-2.2323,-2.2324,0,-2.2423,-2.2434,-2.2412,-2.2413,-2.2405,-2.2407,-2.2406,-2.2378,-2.2377,-2.2364,-2.2373,-2.2371,-2.2368,-2.2372,-2.2353,-2.2351,-2.2339,-2.2368,-2.2338,-2.2345,-2.2338,-2.2337,-2.2337,-2.2374,-2.2375,-2.2376,-2.2376,0,-2.2494,-2.2482,-2.2481,-2.2475,-2.2474,-2.2469,-2.2461,-2.2464,-2.2433,-2.2435,-2.2435,-2.2433,-2.2429,-2.2428,-2.2422,-2.2412,-2.2389,-2.2386,-2.2391,-2.2397,-2.2404,-2.2399,-2.2311,-2.2384,-2.2383,-2.2383,-2.2382,-2.2382,-2.2549,-2.2557,-2.2542,-2.2541,-2.2533,-2.2527,-2.2531,-2.2516,-2.2515,-2.251,-2.2494,-2.2497,-2.2484,-2.2473,-2.2467,-2.2469,-2.2454,-2.2461,-2.2463,-2.2465,-2.2468,-2.2405,-2.2468,-2.2467,-2.2467,-2.2467,-2.2467,0,-2.2617,-2.2606,-2.2606,-2.2596,-2.2596,-2.2574,-2.2565,-2.2566,-2.2569,-2.2559,-2.2557,-2.2557,-2.2556,-2.2537,-2.2534,-2.2539,-2.2528,-2.2539,-2.2537,-2.2536,-2.2482,-2.2478,-2.2548,-2.2548,-2.2548,-2.2548,-2.2548,-2.2548,-2.2653,-2.2664,-2.265,-2.2657,-2.2646,-2.2648,-2.2644,-2.2638,-2.263,-2.2632,-2.263,-2.2618,-2.2605,-2.26,-2.2598,-2.2593,-2.2592,-2.2606,-2.2597,-2.2547,-2.2539,-2.2532,-2.2527,-2.2607,-2.2607,-2.265,-2.2651,-2.2651]},{"header":{"parameterUnit":"m.s-1","parameterCategory":1,"la1":30.2991,"la2":30.254,"lo1":-89.0895,"lo2":-89.0444,"dy":0.0017,"dx":0.0017,"nx":28,"ny":28,"refTime":"2024-12-15T09:00:00:Z","depth":0,"parameterNumber":3,"parameterNumberName":"V-component_of_WINDS"},"data":[0,0,0,0,0,0,0,0,0,0,0,0,0,0,0,0,0,0,0,0,0,0,0,0,0,0,0,0,0,0,0,0,0,0,0,0,0,0,0,0,0,0,0,0,0,0,0,0,0,0,0,0,0,0,0,0,0,0,-0.0118,-0.0119,0,-0.0142,-0.0142,-0.0143,-0.0109,-0.0107,-0.0106,-0.0105,-0.0131,-0.0133,-0.0135,0,0,0,0,0,0,0,0,0,0,0,0,0,-0.0044,-0.0046,-0.0118,-0.0119,-0.0119,-0.0142,-0.0142,-0.0143,-0.0109,-0.0107,-0.0106,-0.0104,-0.0131,-0.0133,-0.0135,0,0,0,0,0,0,0,0,0,0,0,0,0,-0.0073,-0.0046,-0.0118,-0.0105,-0.0104,-0.0142,-0.0142,-0.0143,-0.0109,-0.0107,-0.0105,-0.0104,-0.013,-0.0133,-0.0135,-0.0189,0,0,-0.0144,-0.0145,0,0,0,0,0,0,0,0,-0.0072,-0.0076,-0.0106,-0.0106,-0.0105,-0.012,-0.0126,-0.0158,-0.011,-0.0107,-0.0105,-0.0103,-0.0129,-0.0132,-0.014,-0.019,-0.0191,-0.0144,-0.0146,-0.0147,-0.0148,0,0,0,0,0,0,0,-0.007,-0.0075,-0.0128,-0.0107,-0.0106,-0.0098,-0.01,-0.0132,-0.0128,-0.0107,-0.0105,-0.0108,-0.0128,-0.0138,-0.0141,-0.0191,-0.0144,-0.0146,-0.0148,-0.0149,-0.0285,-0.0287,0,0,0,0,0,0,-0.0069,-0.0073,-0.0127,-0.0128,-0.0083,-0.0101,-0.0103,-0.0117,-0.0128,-0.0127,-0.0109,-0.0106,-0.0134,-0.0138,-0.0142,-0.0204,-0.0147,-0.0149,-0.0151,-0.0283,-0.0285,-0.0287,0,0,0,0,0,0,-0.0068,-0.0074,-0.0126,-0.01,-0.0106,-0.0104,-0.012,-0.0119,-0.0128,-0.0129,-0.0129,-0.012,-0.0133,-0.0138,-0.0177,-0.0204,-0.0151,-0.0153,-0.028,-0.0283,-0.0286,-0.033,0,0,0,0,0,0,-0.0066,-0.0074,-0.0094,-0.0101,-0.0108,-0.0161,-0.0122,-0.012,-0.0133,-0.0129,-0.0139,-0.0139,-0.0132,-0.0173,-0.018,-0.0207,-0.0155,-0.0278,-0.0282,-0.0285,-0.0326,-0.0334,-0.034,0,0,0,0,0,-0.0063,-0.0106,-0.0095,-0.0102,-0.0133,-0.0162,-0.0166,-0.0157,-0.0135,-0.0155,-0.0156,-0.0138,-0.02,-0.0177,-0.0184,-0.0213,-0.0276,-0.0281,-0.0285,-0.0322,-0.0332,-0.034,0,0,0,0,0,0,-0.0103,-0.0106,-0.0095,-0.0141,-0.0151,-0.0156,-0.0182,-0.0167,-0.0185,-0.0181,-0.0169,-0.0171,-0.0213,-0.0217,-0.0191,-0.0265,-0.0235,-0.0241,-0.0261,-0.027,-0.0277,-0.0275,-0.0157,0,0,0,0,0,-0.0117,-0.014,-0.0142,-0.0183,-0.0189,-0.0184,-0.0197,-0.0189,-0.0199,-0.0204,-0.0207,-0.0219,-0.0241,-0.0256,-0.0276,-0.0326,-0.0328,-0.035,-0.0357,-0.0363,-0.0368,-0.0394,-0.0404,-0.0302,-0.0302,-0.0302,0,0,-0.0146,-0.0151,-0.0167,-0.0191,-0.0198,-0.0223,-0.0188,-0.0216,-0.0234,-0.0208,-0.0245,-0.0248,-0.026,-0.0305,-0.0325,-0.031,-0.0397,-0.0369,-0.0373,-0.0375,-0.04,-0.041,-0.0418,-0.0305,-0.0304,-0.0304,0,0,-0.0212,-0.0218,-0.0252,-0.026,-0.0271,-0.0268,-0.0276,-0.0283,-0.0284,-0.032,-0.0301,-0.0323,-0.0361,-0.037,-0.038,-0.0449,-0.0433,-0.0456,-0.0494,-0.052,-0.0528,-0.0535,-0.0559,-0.0568,-0.0461,-0.0461,-0.0461,0,-0.0247,-0.0283,-0.0272,-0.03,-0.0311,-0.0288,-0.0323,-0.0331,-0.0349,-0.0357,-0.0339,-0.0386,-0.0393,-0.0439,-0.0455,-0.0464,-0.0473,-0.0454,-0.0528,-0.0535,-0.0541,-0.0564,-0.0573,-0.0464,-0.0464,-0.0463,-0.0463,0,-0.0325,-0.0351,-0.0377,-0.0393,-0.0408,-0.0439,-0.0432,-0.0448,-0.0439,-0.0437,-0.0475,-0.0482,-0.0502,-0.0513,-0.0504,-0.0558,-0.0548,-0.0529,-0.0499,-0.0554,-0.0575,-0.0583,-0.0468,-0.0467,-0.0466,-0.0465,0,0,-0.0417,-0.0426,-0.0436,-0.0443,-0.0453,-0.0473,-0.0503,-0.0523,-0.0536,-0.0549,-0.0574,-0.0607,-0.059,-0.0601,-0.0593,-0.0615,-0.0669,-0.0594,-0.0594,-0.0607,-0.0727,-0.0741,-0.0751,-0.0658,-0.066,-0.0661,-0.0726,0,-0.0482,-0.0534,-0.0524,-0.0575,-0.0598,-0.0576,-0.0602,-0.0612,-0.0611,-0.0631,-0.0631,-0.0653,-0.0629,-0.0636,-0.0657,-0.0658,-0.0692,-0.0653,-0.0682,-0.0683,-0.0679,-0.0762,-0.0776,-0.0837,-0.0734,-0.0736,-0.0737,0,-0.0565,-0.058,-0.0633,-0.0639,-0.0648,-0.0672,-0.0689,-0.0708,-0.0718,-0.0716,-0.0728,-0.0716,-0.0746,-0.0715,-0.0757,-0.073,-0.0741,-0.0743,-0.0745,-0.0747,-0.0713,-0.0766,-0.0856,-0.0865,-0.075,-0.0749,-0.0748,0,-0.0625,-0.0659,-0.0695,-0.0701,-0.071,-0.0727,-0.0731,-0.0739,-0.0752,-0.0767,-0.0775,-0.0794,-0.0804,-0.0819,-0.0812,-0.079,-0.0854,-0.0823,-0.0854,-0.0854,-0.0868,-0.0867,-0.0961,-0.0876,-0.0876,-0.0876,-0.0876,0,-0.0699,-0.0732,-0.0722,-0.0744,-0.078,-0.0769,-0.0805,-0.0807,-0.0814,-0.0836,-0.0819,-0.084,-0.083,-0.085,-0.0845,-0.088,-0.0885,-0.0884,-0.0882,-0.0886,-0.0886,-0.0892,-0.0888,-0.0878,-0.0878,-0.0877,-0.0877,0,-0.0772,-0.0767,-0.0804,-0.0809,-0.0811,-0.0837,-0.0841,-0.0862,-0.086,-0.0888,-0.0894,-0.0891,-0.0914,-0.0909,-0.0934,-0.0931,-0.0974,-0.0967,-0.0971,-0.0969,-0.0999,-0.0996,-0.1101,-0.1114,-0.1021,-0.1022,-0.1023,0,-0.0819,-0.0843,-0.0851,-0.0864,-0.0869,-0.0891,-0.0903,-0.0893,-0.0907,-0.092,-0.0939,-0.096,-0.0977,-0.1015,-0.1015,-0.1034,-0.1027,-0.1063,-0.103,-0.1032,-0.1027,-0.1026,-0.1028,-0.1069,-0.107,-0.1071,-0.1072,0,-0.0902,-0.0898,-0.0916,-0.0934,-0.0949,-0.0962,-0.0974,-0.0985,-0.0976,-0.0993,-0.1015,-0.1028,-0.1054,-0.1075,-0.1093,-0.1098,-0.1083,-0.1082,-0.109,-0.1093,-0.1094,-0.1093,-0.0988,-0.1079,-0.1079,-0.1078,-0.1078,-0.1077,-0.0963,-0.0984,-0.0992,-0.1013,-0.102,-0.1031,-0.1051,-0.1051,-0.107,-0.1089,-0.1083,-0.1109,-0.1118,-0.114,-0.1147,-0.1167,-0.1154,-0.1166,-0.1169,-0.1172,-0.1175,-0.1091,-0.1171,-0.1171,-0.117,-0.117,-0.117,0,-0.1045,-0.1049,-0.1068,-0.1084,-0.1101,-0.1086,-0.1098,-0.1112,-0.1135,-0.1145,-0.1161,-0.1188,-0.1208,-0.121,-0.123,-0.1246,-0.1239,-0.1251,-0.1249,-0.1251,-0.1186,-0.1177,-0.1256,-0.1256,-0.1256,-0.1256,-0.1255,-0.1255,-0.1089,-0.1123,-0.112,-0.1158,-0.1162,-0.1187,-0.1195,-0.1205,-0.1213,-0.1243,-0.126,-0.126,-0.1267,-0.1287,-0.1305,-0.1305,-0.1313,-0.1327,-0.1324,-0.1264,-0.1255,-0.1247,-0.1238,-0.1328,-0.1329,-0.1387,-0.1387,-0.1388]}]]